Location: Karcze
(52.0945°N, 22.4786°E)
Time: 12:27:40
(UTC+00:00)

CZ-2D R/B - Pass Details

Date: 14 July 2020
Orbit: 792 x 844 km, 98.7° (Epoch: 07 August)

Event Time Altitude Azimuth Distance (km) Brightness Sun altitude
Rises 00:36:47 0° 14° (NNE) 3,344 7.0 -11.7°
Reaches altitude 10° 00:39:07 10° 13° (NNE) 2,415 5.9 -11.5°
Maximum altitude 00:44:27 75° 289° (WNW) 856 2.2 -11.1°
Enters shadow 00:49:08 14° 206° (SSW) 2,159 3.7 -10.8°
